Weather History for KSLN - February, 2014

Change the Weather History Date:

Saturday, February 15, 2014

  Actual Average Record
Temperature  
Mean Temperature 44 °F 35 °F  
Max Temperature 59 °F 46 °F 75 °F (1921)
Min Temperature 28 °F 25 °F -7 °F (1905)
Degree Days  
Heating Degree Days 21 30  
Month to date heating degree days 661 470  
Since 1 July heating degree days 3894 3486  
Cooling Degree Days 0 0  
Month to date cooling degree days 0 0  
Year to date cooling degree days 0 0  
Moisture  
Dew Point 29 °F    
Average Humidity 63    
Maximum Humidity 85    
Minimum Humidity 40    
Precipitation  
Precipitation 0.00 in 0.04 in 0.47 in (1993)
Month to date precipitation 1.14 0.57  
Year to date precipitation 1.63 1.20  
Sea Level Pressure  
Sea Level Pressure 29.99 in    
Wind  
Wind Speed 11 mph (SW)    
Max Wind Speed 22 mph    
Max Gust Speed 31 mph    
Visibility 10 miles    
Events      
T = Trace of Precipitation, MM = Missing Value Source: NWS Daily Summary

Daily Weather History Graph

Daily Weather History Graph

Search for Another Location

Airport or City:

Trip Planner

Search our weather history database for the weather conditions in past years. The results will help you decide how hot, cold, wet, or windy it might be!

Date:

Astronomy

Feb. 15, 2014 Rise Set
Actual Time 7:21 AM CST 6:08 PM CST
Civil Twilight 6:54 AM CST 6:35 PM CST
Nautical Twilight 6:23 AM CST 7:06 PM CST
Astronomical Twilight 5:52 AM CST 7:37 PM CST
Moon 7:08 PM CST (2/15) 7:22 AM CST (2/15)
Length of Visible Light 11h 41m
Length of Day
10h 46m
Waxing Gibbous, 99% of the Moon is Illuminated
Feb 15
Waxing Gibbous
Feb 22
Last Quarter
Mar 1
New
Mar 8
First Quarter
Mar 16
Full

Hourly Weather History & Observations

Time (CST) Temp. Windchill Dew Point Humidity Pressure Visibility Wind Dir Wind Speed Gust Speed Precip Events Conditions
12:53 AM 28.0 °F 20.8 °F 24.1 °F 85% 30.09 in 10.0 mi SE 6.9 mph - N/A   Clear
1:53 AM 30.0 °F 23.2 °F 25.0 °F 82% 30.06 in 10.0 mi SSE 6.9 mph - N/A   Mostly Cloudy
2:53 AM 30.9 °F 23.5 °F 26.1 °F 82% 30.04 in 10.0 mi SSE 8.1 mph - N/A   Mostly Cloudy
3:53 AM 30.9 °F 21.7 °F 25.0 °F 79% 30.02 in 10.0 mi SSE 11.5 mph - N/A   Overcast
4:53 AM 30.9 °F 20.7 °F 24.1 °F 76% 29.99 in 10.0 mi SSE 13.8 mph - N/A   Mostly Cloudy
5:53 AM 32.0 °F 20.5 °F 24.1 °F 73% 29.96 in 10.0 mi South 18.4 mph 25.3 mph N/A   Overcast
6:53 AM 32.0 °F 20.5 °F 25.0 °F 75% 29.94 in 10.0 mi South 18.4 mph 26.5 mph N/A   Overcast
7:53 AM 32.0 °F 21.2 °F 25.0 °F 75% 29.91 in 10.0 mi South 16.1 mph 26.5 mph N/A   Mostly Cloudy
8:53 AM 33.1 °F 22.2 °F 26.1 °F 75% 29.90 in 10.0 mi South 17.3 mph 26.5 mph 0.00 in   Scattered Clouds
9:53 AM 37.9 °F 29.6 °F 28.0 °F 68% 29.93 in 10.0 mi South 13.8 mph 23.0 mph 0.00 in   Scattered Clouds
10:53 AM 41.0 °F 33.5 °F 28.9 °F 62% 29.92 in 10.0 mi SSW 13.8 mph - N/A   Mostly Cloudy
11:53 AM 45.0 °F 39.3 °F 30.0 °F 56% 29.94 in 10.0 mi WSW 11.5 mph - N/A   Mostly Cloudy
12:53 PM 50.0 °F - 30.9 °F 48% 29.90 in 10.0 mi West 12.7 mph - N/A   Clear
1:53 PM 54.0 °F - 33.1 °F 45% 29.88 in 10.0 mi West 9.2 mph - N/A   Partly Cloudy
2:53 PM 59.0 °F - 35.1 °F 41% 29.91 in 10.0 mi NW 15.0 mph - N/A   Scattered Clouds
3:53 PM 57.9 °F - 35.1 °F 42% 29.94 in 10.0 mi North 6.9 mph - N/A   Scattered Clouds
4:53 PM 55.9 °F - 36.0 °F 47% 29.96 in 10.0 mi WNW 5.8 mph - N/A   Partly Cloudy
5:53 PM 50.0 °F - 36.0 °F 59% 29.98 in 10.0 mi West 10.4 mph - N/A   Partly Cloudy
6:53 PM 44.1 °F 39.0 °F 33.1 °F 65% 30.03 in 10.0 mi West 9.2 mph - N/A   Clear
7:53 PM 42.1 °F 36.1 °F 30.9 °F 65% 30.06 in 10.0 mi WNW 10.4 mph - N/A   Clear
8:53 PM 39.9 °F 34.5 °F 30.0 °F 68% 30.07 in 10.0 mi WNW 8.1 mph - N/A   Clear
9:53 PM 39.0 °F 32.3 °F 28.9 °F 67% 30.09 in 10.0 mi West 10.4 mph - N/A   Clear
10:53 PM 36.0 °F 31.1 °F 27.0 °F 70% 30.11 in 10.0 mi NNW 5.8 mph - N/A   Clear
11:53 PM 36.0 °F 29.0 °F 27.0 °F 70% 30.10 in 10.0 mi North 9.2 mph - N/A   Clear